Hourly Data Report for October 04, 2017

All times are specified in Local Standard Time (LST). Add 1 hour to adjust for Daylight Saving Time where and when it is observed.

TIMMINS A
ONTARIO

48°34'14.000" N
81°22'36.000" W
294.70 m
6078286
71739
YTS

Download Data

Hourly Data (October 2017)
Hourly Data Report for October 4, 2017
Temp Definition
°C
Dew Point Temp Definition
°C
Rel Hum Definition
%
Wind Dir Definition
10's deg

Wind Spd Definition
km/h
Visibility Definition
km
Stn Press Definition
kPa
Hmdx Definition


Wind Chill Definition


Weather Definition


TIME
00:00 Legend Double Dagger 19.4 16.6 84 20 13 24.1 98.01     LegendNANA
01:00 Legend Double Dagger 19.3 16.7 85 20 18 24.1 97.92     Mostly Cloudy
02:00 Legend Double Dagger 18.4 17.3 93 20 14 24.1 97.84     Rain Showers
03:00 Legend Double Dagger 18.6 17.6 94 21 13 24.1 97.79     Rain Showers
04:00 Legend Double Dagger 18.5 17.4 94 24 11 24.1 97.83     Mostly Cloudy
05:00 Legend Double Dagger 17.2 15.3 89 26 15 24.1 97.89     LegendNANA
06:00 Legend Double Dagger 16.2 14.2 88 26 14 24.1 97.94     LegendNANA
07:00 Legend Double Dagger 15.5 13.1 86 26 17 24.1 98.01     Mostly Cloudy
08:00 Legend Double Dagger 14.8 11.5 81 29 25 24.1 98.04     LegendNANA
09:00 Legend Double Dagger 14.7 10.0 73 29 31 24.1 98.07     LegendNANA
10:00 Legend Double Dagger 14.2 10.1 76 28 17 24.1 98.11     Mostly Cloudy
11:00 Legend Double Dagger 15.0 9.6 70 28 17 24.1 98.08     LegendNANA
12:00 Legend Double Dagger 14.3 8.8 70 29 18 24.1 98.07     Rain
13:00 Legend Double Dagger 14.9 9.4 69 33 17 24.1 98.03     Mostly Cloudy
14:00 Legend Double Dagger 16.4 8.6 60 28 20 24.1 97.97     LegendNANA
15:00 Legend Double Dagger 16.8 7.1 52 29 18 24.1 97.96     LegendNANA
16:00 Legend Double Dagger 17.4 6.8 49 28 16 24.1 97.93     Mostly Cloudy
17:00 Legend Double Dagger 15.1 6.3 55 28 17 24.1 98.01     LegendNANA
18:00 Legend Double Dagger 12.7 4.8 58 27 14 24.1 98.07     LegendNANA
19:00 Legend Double Dagger 10.3 4.8 68 25 8 24.1 98.10     Mainly Clear
20:00 Legend Double Dagger 9.5 4.8 72 24 8 24.1 98.12     LegendNANA
21:00 Legend Double Dagger 10.8 5.7 71 25 11 24.1 98.10     LegendNANA
22:00 Legend Double Dagger 9.0 5.5 79 23 13 24.1 98.07     Mainly Clear
23:00 Legend Double Dagger 8.4 5.5 82 24 10 24.1 98.05     LegendNANA

Notes on Data Quality.

Legend

  • E = Estimated
  • M = Missing
  • NA = Not Available
  • ‡ = Partner data that is not subject to review by the National Climate Archives
Date modified: